• In Czech Republic
  • List of Countries
  • For 7 days
  • Water Temperature
  • Satellite Maps
  • Weather Map
  • Weather Widgets
  • user-avatar
    Login

    Hourly Weather Kobetey

    Today, 24 May, Thursday

    Time Temperature Precipitation Wind Pressure Humidity
    00:00 +5°C° 0 mm 2 mps 734 mmHg 56%
    01:00 +6°C° 0 mm 1 mps 734 mmHg 57%
    02:00 +5°C° 0 mm 1 mps 734 mmHg 59%
    03:00 +5°C° 0 mm 2 mps 735 mmHg 58%
    04:00 +5°C° 0 mm 2 mps 735 mmHg 57%
    05:00 +5°C° 0 mm 3 mps 735 mmHg 57%
    06:00 +7°C° 0 mm 4 mps 735 mmHg 52%
    07:00 +9°C° 0 mm 5 mps 735 mmHg 47%
    08:00 +10°C° 0 mm 6 mps 735 mmHg 42%
    09:00 +13°C° 0 mm 6 mps 735 mmHg 40%
    10:00 +14°C° 0 mm 7 mps 735 mmHg 37%
    11:00 +16°C° 0 mm 7 mps 734 mmHg 35%
    12:00 +16°C° 0.1 mm 7 mps 734 mmHg 36%
    13:00 +17°C° 0.1 mm 7 mps 733 mmHg 38%
    14:00 +17°C° 0.1 mm 7 mps 733 mmHg 40%
    15:00 +17°C° 0.1 mm 7 mps 732 mmHg 43%
    16:00 +17°C° 0.1 mm 6 mps 731 mmHg 47%
    17:00 +17°C° 0.1 mm 6 mps 731 mmHg 51%
    18:00 +16°C° 0.1 mm 6 mps 730 mmHg 54%
    19:00 +16°C° 0.1 mm 6 mps 730 mmHg 56%
    20:00 +16°C° 0.1 mm 6 mps 729 mmHg 59%
    21:00 +16°C° 0.4 mm 6 mps 729 mmHg 61%
    22:00 +15°C° 0.4 mm 6 mps 729 mmHg 63%
    23:00 +15°C° 0.4 mm 6 mps 728 mmHg 65%

    Tomorrow, 25 May, Friday

    Time Temperature Precipitation Wind Pressure Humidity
    00:00 +15°C° 0.3 mm 6 mps 728 mmHg 66%
    01:00 +15°C° 0.3 mm 6 mps 728 mmHg 67%
    02:00 +14°C° 0.3 mm 6 mps 727 mmHg 68%
    03:00 +14°C° 0 mm 6 mps 727 mmHg 66%
    04:00 +13°C° 0 mm 6 mps 727 mmHg 65%
    05:00 +13°C° 0 mm 6 mps 727 mmHg 63%
    06:00 +15°C° 0 mm 6 mps 727 mmHg 58%
    07:00 +16°C° 0 mm 7 mps 727 mmHg 52%
    08:00 +18°C° 0 mm 7 mps 727 mmHg 47%
    09:00 +21°C° 0 mm 8 mps 727 mmHg 45%
    10:00 +23°C° 0 mm 8 mps 727 mmHg 42%
    11:00 +26°C° 0 mm 8 mps 727 mmHg 39%
    12:00 +27°C° 0 mm 8 mps 727 mmHg 38%
    13:00 +28°C° 0 mm 8 mps 727 mmHg 36%
    14:00 +29°C° 0 mm 9 mps 726 mmHg 34%
    15:00 +28°C° 0 mm 8 mps 726 mmHg 36%
    16:00 +28°C° 0 mm 6 mps 726 mmHg 37%
    17:00 +27°C° 0 mm 5 mps 726 mmHg 39%
    18:00 +26°C° 0 mm 5 mps 726 mmHg 42%
    19:00 +25°C° 0 mm 4 mps 726 mmHg 46%
    20:00 +22°C° 0 mm 4 mps 725 mmHg 50%
    21:00 +22°C° 0 mm 4 mps 725 mmHg 48%
    22:00 +22°C° 0 mm 5 mps 725 mmHg 46%
    23:00 +21°C° 0 mm 6 mps 724 mmHg 44%

    Day after tomorrow, 26 May, Saturday

    Time Temperature Precipitation Wind Pressure Humidity
    00:00 +21°C° 0 mm 6 mps 724 mmHg 44%
    01:00 +20°C° 0 mm 6 mps 724 mmHg 44%
    02:00 +19°C° 0 mm 6 mps 723 mmHg 44%
    03:00 +17°C° 0 mm 6 mps 723 mmHg 45%
    04:00 +17°C° 0 mm 6 mps 723 mmHg 46%
    05:00 +17°C° 0 mm 6 mps 723 mmHg 47%
    06:00 +20°C° 0 mm 8 mps 723 mmHg 43%
    07:00 +22°C° 0 mm 9 mps 723 mmHg 38%
    08:00 +24°C° 0 mm 10 mps 722 mmHg 33%
    09:00 +26°C° 0 mm 10 mps 722 mmHg 30%
    10:00 +27°C° 0 mm 11 mps 722 mmHg 27%
    11:00 +29°C° 0 mm 12 mps 721 mmHg 25%
    12:00 +29°C° 0 mm 12 mps 721 mmHg 24%
    13:00 +31°C° 0 mm 12 mps 720 mmHg 23%
    14:00 +31°C° 0 mm 12 mps 720 mmHg 22%
    15:00 +31°C° 0 mm 11 mps 719 mmHg 22%
    16:00 +31°C° 0 mm 10 mps 719 mmHg 22%
    17:00 +31°C° 0 mm 8 mps 719 mmHg 22%
    18:00 +27°C° 0 mm 8 mps 718 mmHg 31%
    19:00 +23°C° 0 mm 7 mps 718 mmHg 40%
    20:00 +21°C° 0 mm 6 mps 718 mmHg 49%
    21:00 +19°C° 0 mm 6 mps 718 mmHg 58%
    22:00 +16°C° 0 mm 7 mps 718 mmHg 66%
    23:00 +14°C° 0 mm 7 mps 718 mmHg 75%

    27 May, Sunday

    Time Temperature Precipitation Wind Pressure Humidity
    00:00 +12°C° 0 mm 7 mps 718 mmHg 77%
    01:00 +11°C° 0 mm 6 mps 719 mmHg 79%
    02:00 +11°C° 0 mm 6 mps 719 mmHg 81%
    03:00 +10°C° 0.6 mm 6 mps 719 mmHg 82%
    04:00 +9°C° 0.6 mm 7 mps 720 mmHg 83%
    05:00 +7°C° 0.6 mm 8 mps 720 mmHg 84%
    06:00 +6°C° 0.4 mm 9 mps 721 mmHg 82%
    07:00 +5°C° 0.4 mm 10 mps 722 mmHg 81%
    08:00 +3°C° 0.4 mm 11 mps 723 mmHg 79%
    09:00 +4°C° 0.1 mm 11 mps 724 mmHg 76%
    10:00 +4°C° 0.1 mm 11 mps 725 mmHg 72%
    11:00 +4°C° 0.1 mm 11 mps 725 mmHg 69%
    12:00 +6°C° 0 mm 10 mps 726 mmHg 65%
    13:00 +7°C° 0 mm 9 mps 727 mmHg 61%
    14:00 +8°C° 0 mm 9 mps 727 mmHg 57%
    15:00 +9°C° 0 mm 8 mps 727 mmHg 55%
    16:00 +9°C° 0 mm 7 mps 728 mmHg 52%
    17:00 +10°C° 0 mm 7 mps 728 mmHg 50%
    18:00 +9°C° 0 mm 5 mps 728 mmHg 54%
    19:00 +8°C° 0 mm 4 mps 728 mmHg 58%
    20:00 +9°C° 0 mm 3 mps 728 mmHg 62%
    21:00 +8°C° 0 mm 3 mps 729 mmHg 64%
    22:00 +7°C° 0 mm 3 mps 729 mmHg 67%
    23:00 +5°C° 0 mm 3 mps 729 mmHg 69%

    28 May, Monday

    Time Temperature Precipitation Wind Pressure Humidity
    00:00 +6°C° 0 mm 2 mps 729 mmHg 69%
    01:00 +5°C° 0 mm 2 mps 729 mmHg 69%
    02:00 +5°C° 0 mm 2 mps 728 mmHg 68%
    03:00 +5°C° 0 mm 2 mps 729 mmHg 67%
    04:00 +4°C° 0 mm 3 mps 729 mmHg 65%
    05:00 +4°C° 0 mm 3 mps 729 mmHg 64%
    06:00 +6°C° 0 mm 5 mps 729 mmHg 58%
    07:00 +8°C° 0 mm 6 mps 728 mmHg 53%
    08:00 +10°C° 0 mm 7 mps 728 mmHg 47%
    09:00 +12°C° 0 mm 8 mps 728 mmHg 46%
    10:00 +15°C° 0 mm 8 mps 728 mmHg 44%
    11:00 +16°C° 0 mm 9 mps 727 mmHg 43%
    12:00 +18°C° 0 mm 9 mps 727 mmHg 42%
    13:00 +19°C° 0 mm 9 mps 726 mmHg 41%
    14:00 +21°C° 0 mm 9 mps 726 mmHg 41%
    15:00 +21°C° 0.1 mm 9 mps 726 mmHg 42%
    16:00 +20°C° 0.1 mm 8 mps 725 mmHg 44%
    17:00 +20°C° 0.1 mm 8 mps 725 mmHg 45%
    18:00 +18°C° 0.1 mm 7 mps 725 mmHg 48%
    19:00 +17°C° 0.1 mm 6 mps 725 mmHg 51%
    20:00 +17°C° 0.1 mm 5 mps 725 mmHg 55%
    21:00 +16°C° 0.1 mm 5 mps 724 mmHg 55%
    22:00 +16°C° 0.1 mm 6 mps 724 mmHg 55%
    23:00 +15°C° 0.1 mm 6 mps 724 mmHg 56%

    29 May, Tuesday

    Time Temperature Precipitation Wind Pressure Humidity
    00:00 +15°C° 0 mm 6 mps 723 mmHg 56%
    01:00 +15°C° 0 mm 7 mps 723 mmHg 55%
    02:00 +15°C° 0 mm 7 mps 723 mmHg 55%
    03:00 +14°C° 0 mm 7 mps 723 mmHg 55%
    04:00 +12°C° 0 mm 7 mps 723 mmHg 54%
    05:00 +12°C° 0 mm 7 mps 722 mmHg 54%
    06:00 +12°C° 0 mm 7 mps 722 mmHg 54%
    07:00 +14°C° 0 mm 7 mps 722 mmHg 54%
    08:00 +15°C° 0 mm 7 mps 722 mmHg 54%
    09:00 +14°C° 0.3 mm 7 mps 722 mmHg 57%
    10:00 +14°C° 0.3 mm 7 mps 722 mmHg 60%
    11:00 +14°C° 0.3 mm 7 mps 722 mmHg 63%
    12:00 +13°C° 0.3 mm 6 mps 721 mmHg 65%
    13:00 +13°C° 0.3 mm 5 mps 721 mmHg 66%
    14:00 +12°C° 0.3 mm 5 mps 721 mmHg 67%
    15:00 +12°C° 0.2 mm 4 mps 721 mmHg 65%
    16:00 +12°C° 0.2 mm 4 mps 721 mmHg 63%
    17:00 +12°C° 0.2 mm 3 mps 721 mmHg 61%
    18:00 +11°C° 0.3 mm 3 mps 721 mmHg 65%
    19:00 +10°C° 0.3 mm 3 mps 721 mmHg 69%
    20:00 +10°C° 0.3 mm 2 mps 721 mmHg 73%
    21:00 +9°C° 0.3 mm 3 mps 721 mmHg 74%
    22:00 +9°C° 0.3 mm 3 mps 721 mmHg 74%
    23:00 +7°C° 0.3 mm 4 mps 721 mmHg 75%
    Show more